• Join FlightAware (Why Join?)
  • Login
  • US Flag 
06:05AM EDT


 

Airport Tracker/Info


-or-


 

Live Flight TrackerFlight Track Log ✈ RPA3392 ✈ 02-May-2013 ✈ KDCA - KALB

Flight Track Log - Related Links

Times and Time Zones

All times are in EDT time to prevent confusion due to time zone crossing. See the RPA3392 flight status page for this flight to view local times or setup timezone preferences in your user account.

Time Position Orientation Groundspeed Altitude Reporting Facility
EDT Latitude Longitude Course Direction KTS MPH feet Rate Location/Type
10:10PM 38.8167 -77.0333 83° East 158 182 2,000  Level Potomac TRACON
10:11PM 38.7500 -77.0167 169° South 256 295 4,100 2,820 Climbing Potomac TRACON
10:12PM 38.9716 -76.6735 57° Northeast  Level FlightAware Approximate
10:12PM 38.7667 -76.9333 76° East 261 300 7,700  Level Potomac TRACON
10:13PM 39.0206 -76.5549 67° East  Level FlightAware Approximate
10:13PM 38.8000 -76.8667 57° Northeast 283 326 10,900  Level Potomac TRACON
10:14PM 39.0665 -76.4338 63° Northeast  Level FlightAware Approximate
10:14PM 38.8492 -76.7750 55° Northeast 316 364 13,400  Level Washington Center
10:15PM 39.1167 -76.3155 90° East  Level FlightAware Approximate
10:15PM 38.9000 -76.6825 55° Northeast 316 364 15,900  Level Washington Center
10:16PM 39.1519 -76.1975 83° East  Level FlightAware Approximate
10:16PM 38.9531 -76.5844 55° Northeast 321 369 17,900  Level Washington Center
10:18PM 39.0100 -76.4839 54° Northeast 331 381 20,100 2,220 Climbing Washington Center
10:19PM 39.0692 -76.3750 55° Northeast 346 398 22,400 1,440 Climbing Washington Center
10:20PM 39.1283 -76.2686 54° Northeast 359 413 23,000 300 Climbing Washington Center
10:20PM 39.1622 -76.1403 71° East 359 413 23,000  Level Washington Center
10:21PM 39.1772 -76.0067 82° East 366 421 23,000 540 Level Washington Center
10:23PM 39.2006 -75.8728 77° East 371 427 24,100 1,320 Climbing Washington Center
10:23PM 39.2758 -75.7739 45° Northeast 365 420 25,700 1,500 Climbing Washington Center
10:24PM 39.3531 -75.6722 45° Northeast 370 426 27,100 1,380 Climbing Washington Center
10:26PM 39.4322 -75.5700 45° Northeast 389 448 28,600 660 Climbing Washington Center
10:27PM 39.5836 -75.3772 44° Northeast 416 479 29,000 120 Climbing New York Center
10:28PM 39.6672 -75.2667 45° Northeast 421 484 29,000  Level New York Center
10:29PM 39.7467 -75.1475 49° Northeast 427 491 29,000  Level New York Center
10:30PM 39.8258 -75.0336 48° Northeast 432 497 29,000  Level New York Center
10:31PM 39.9072 -74.9194 47° Northeast 427 491 29,000  Level New York Center
10:32PM 39.9992 -74.7947 46° Northeast 432 497 29,000  Level New York Center
10:33PM 40.0822 -74.6803 46° Northeast 427 491 29,000  Level New York Center
10:34PM 40.1653 -74.5572 49° Northeast 435 501 29,000  Level New York Center
10:35PM 40.2658 -74.4783 31° Northeast 435 501 29,000  Level New York Center
10:36PM 40.3833 -74.4494 11° North 415 478 29,000  Level New York Center
10:37PM 40.5011 -74.4175 12° North 415 478 29,000  Level New York Center
10:39PM 40.6875 -74.3669 12° North 419 482 29,000  Level Boston Center
10:40PM 40.7942 -74.3428 10° North 424 488 29,000  Level Boston Center
10:41PM 40.9114 -74.3106 12° North 430 495 29,000  Level Boston Center
10:42PM 41.0286 -74.2808 11° North 430 495 29,000 -480 Level Boston Center
10:43PM 41.1417 -74.2483 12° North 424 488 28,100 -1,200 Descending Boston Center
10:44PM 41.2525 -74.2208 11° North 412 474 26,700 -1,080 Descending Boston Center
10:45PM 41.3572 -74.1878 13° North 397 457 26,000 -720 Descending Boston Center
10:46PM 41.4619 -74.1575 12° North 392 451 25,300 -1,320 Descending Boston Center
10:47PM 41.5667 -74.1325 10° North 387 445 23,400 -1,860 Descending Boston Center
10:48PM 41.6608 -74.1072 11° North 367 422 21,600 -1,800 Descending Boston Center
10:49PM 41.7469 -74.0650 20° North 339 390 19,800 -1,920 Descending Boston Center
10:50PM 41.8169 -73.9722 45° Northeast 314 361 17,800 -1,440 Descending Boston Center
10:51PM 41.8883 -73.9347 21° North 309 356 17,000 -660 Descending Boston Center
10:52PM 41.9864 -73.9175 North 309 356 16,500 -840 Descending Boston Center
10:52PM 42.0136 -73.9128 North 313 360 15,900 -1,680 Descending Boston Center
10:53PM 42.0658 -73.9083 North 311 358 14,900 -1,560 Descending Boston Center
10:54PM 42.1536 -73.8936 North 305 351 13,400 -1,500 Descending Boston Center
10:55PM 42.2344 -73.9094 352° North 298 343 11,900 -1,440 Descending Boston Center
10:55PM 42.2344 -73.9094 352° North 298 343 12,000 -1,140 Climbing Boston Center
10:56PM 42.3031 -73.9222 352° North 265 305 10,900 -1,320 Descending Boston Center
10:57PM 42.3781 -73.9297 356° North 269 310 9,500 -1,740 Descending Boston Center
10:58PM 42.4592 -73.9428 353° North 273 314 7,400 -1,980 Descending Boston Center
10:59PM 42.5361 -73.9503 356° North 272 313 5,500 -1,680 Descending Boston Center
11:00PM 42.6111 -73.9578 356° North 275 316 4,100 -1,200 Descending Boston Center
11:01PM 42.6883 -73.9511 North 276 318 3,100 -780 Descending Boston Center
11:02PM 42.7553 -73.9444 North 227 261 2,600 -720 Descending Boston Center
11:03PM 42.8178 -73.9458 359° North 218 251 1,700 -540 Descending Boston Center
11:04PM 42.8536 -73.9100 36° Northeast 170 196 1,600  Descending Boston Center
11:05PM 42.8564 -73.8533 86° East 150 173 1,700  Climbing Boston Center
11:06PM 42.8256 -73.8103 134° Southeast 163 188 1,600 -120 Descending Boston Center